Pittsburgh, PA

9:32 PM EST on December 15, 2019 (GMT -0500)
Pittsburgh International

Weather History for KPIT - October, 2019

Change the Weather History Date:

Wednesday, October 23, 2019

  Actual Average Record
Temperature  
Mean Temperature 51 °F 50 °F  
Max Temperature 57 °F 60 °F 82 °F (1947)
Min Temperature 44 °F 41 °F 25 °F (1976)
Degree Days  
Heating Degree Days 14 15  
Month to date heating degree days 213 262  
Since 1 July heating degree days 221 376  
Cooling Degree Days 0 0  
Month to date cooling degree days 37 6  
Year to date cooling degree days 934 734  
Growing Degree Days 1 (Base 50)    
Moisture  
Dew Point 34 °F    
Average Humidity 56    
Maximum Humidity 79    
Minimum Humidity 33    
Precipitation  
Precipitation 0.00 in 0.08 in 1.45 in (1878)
Month to date precipitation 3.72 1.65  
Year to date precipitation 43.81 31.47  
Sea Level Pressure  
Sea Level Pressure 30.07 in    
Wind  
Wind Speed 7 mph ()    
Max Wind Speed 22 mph    
Max Gust Speed 31 mph    
Visibility 10.0 miles    
Events      
T = Trace of Precipitation, MM = Missing Value Source: Averaged Metar Reports

Daily Weather History Graph

Daily Weather History Graph

Search for Another Location

Airport or City:

Astronomy

Oct. 23, 2019 Rise Set
Actual Time 7:40 AM EDT 6:29 PM EDT
Civil Twilight 7:12 AM EDT 6:57 PM EDT
Nautical Twilight 6:40 AM EDT 7:29 PM EDT
Astronomical Twilight 6:09 AM EDT 8:00 PM EDT
Moon 1:55 AM EDT (10/23) 4:20 PM EDT (10/23)
Length of Visible Light 11h 44m
Length of Day
10h 49m
Waning Crescent, 27% of the Moon is Illuminated
Oct 23
Waning Crescent
Oct 27
New
Nov 4
First Quarter
Nov 12
Full
Nov 19
Last Quarter

Hourly Weather History & Observations

Time (EDT) Temp. Windchill Dew Point Humidity Pressure Visibility Wind Dir Wind Speed Gust Speed Precip Events Conditions
12:51 AM 50.0 °F - 39.9 °F 68% 29.91 in 10.0 mi SW 4.6 mph - N/A   Scattered Clouds
1:51 AM 46.9 °F - 39.9 °F 77% 29.92 in 10.0 mi WSW 5.8 mph - N/A   Scattered Clouds
2:51 AM 46.0 °F 43.1 °F 39.0 °F 76% 29.93 in 10.0 mi WSW 5.8 mph - N/A   Partly Cloudy
3:51 AM 46.9 °F - 39.0 °F 74% 29.94 in 10.0 mi SW 5.8 mph - N/A   Partly Cloudy
4:51 AM 46.9 °F - 39.0 °F 74% 29.95 in 10.0 mi SW 5.8 mph - N/A   Partly Cloudy
5:51 AM 46.0 °F 42.5 °F 37.9 °F 73% 29.97 in 10.0 mi SSW 6.9 mph - N/A   Clear
6:51 AM 45.0 °F 41.2 °F 37.9 °F 76% 29.99 in 10.0 mi SW 6.9 mph - N/A   Clear
7:51 AM 44.1 °F 40.8 °F 37.9 °F 79% 30.02 in 10.0 mi SW 5.8 mph - N/A   Clear
8:51 AM 46.0 °F 41.4 °F 37.9 °F 73% 30.04 in 10.0 mi SW 9.2 mph - N/A   Clear
9:51 AM 48.0 °F - 37.9 °F 68% 30.07 in 10.0 mi WSW 9.2 mph - N/A   Clear
10:51 AM 51.1 °F - 35.1 °F 54% 30.08 in 10.0 mi WSW 11.5 mph 17.3 mph N/A   Partly Cloudy
11:51 AM 53.1 °F - 32.0 °F 45% 30.10 in 10.0 mi West 11.5 mph 25.3 mph N/A   Scattered Clouds
12:51 PM 54.0 °F - 30.9 °F 41% 30.11 in 10.0 mi West 20.7 mph 27.6 mph N/A   Scattered Clouds
1:51 PM 55.0 °F - 30.0 °F 38% 30.10 in 10.0 mi WNW 16.1 mph 20.7 mph N/A   Partly Cloudy
2:51 PM 55.9 °F - 28.0 °F 34% 30.11 in 10.0 mi WSW 15.0 mph 19.6 mph N/A   Partly Cloudy
3:51 PM 57.0 °F - 28.9 °F 34% 30.12 in 10.0 mi West 11.5 mph 19.6 mph N/A   Partly Cloudy
4:51 PM 57.0 °F - 28.0 °F 33% 30.13 in 10.0 mi WSW 9.2 mph - N/A   Partly Cloudy
5:51 PM 55.9 °F - 28.0 °F 34% 30.14 in 10.0 mi WSW 8.1 mph - N/A   Partly Cloudy
6:51 PM 54.0 °F - 30.0 °F 40% 30.16 in 10.0 mi SW 4.6 mph - N/A   Clear
7:51 PM 50.0 °F - 30.9 °F 48% 30.17 in 10.0 mi South 4.6 mph - N/A   Clear
8:51 PM 48.9 °F - 30.9 °F 50% 30.19 in 10.0 mi South 4.6 mph - N/A   Clear
9:51 PM 48.0 °F - 30.9 °F 52% 30.20 in 10.0 mi South 4.6 mph - N/A   Partly Cloudy
10:51 PM 46.9 °F - 30.9 °F 54% 30.21 in 10.0 mi South 5.8 mph - N/A   Partly Cloudy
11:51 PM 45.0 °F 42.6 °F 30.9 °F 58% 30.21 in 10.0 mi South 4.6 mph - N/A   Clear